Weather in Chyrgaky

Russia / Tyva Republic     51°03′53″N   91°00′22″E
temp.,
°C
wind,
m/s
gust,
m/s
humid.,
%
clouds,
%
prec.,
mm/h
press.,
hPa
HPBL,
m
31 july, sat
sat3101:00+10wsw3593100 5.2 1014409
04:00+10w2392100 6.8 1015157
07:00+10nw1292100 9.9 1016108
10:00+12sse0183100 0.8 1016166
13:00+15n226699 1.0 1015880
16:00+17n335766 0.1 10141270
19:00+15ne127069 0.5 1014178
22:00+11s2286100 1.3 101515
1 august, sun
sun101:00+10ssw218694 1.4 101510
04:00+9ssw2188100 0.0 101410
07:00+11ssw11840 0.0 101463
10:00+15nw33690 0.0 1013815
13:00+18nnw33439 0.0 10101255
16:00+20nnw12370 0.0 10081326
19:00+20n13475 0.0 1008876
22:00+13ssw325881 0.0 101017
2 august, mon
mon201:00+14sw225858 0.1 101115
04:00+10s32700 0.0 101118
07:00+13sw11651 0.0 101163
10:00+17nnw22530 0.0 1010730
13:00+20nnw33393 0.0 10091299
16:00+22n23326 0.0 10071263
19:00+20ne22485 0.0 1007125
22:00+14sse33575 0.0 100926
3 august, tue
tue301:00+13s335716 0.0 100928
04:00+11s33625 0.0 101020
07:00+14s22615 0.0 101067
10:00+19n31505 0.0 1008619
13:00+22n43435 0.0 1005885
16:00+24e233812 0.0 10021101
19:00+14ene2387100 0.9 1006135
22:00+11sse459191 14.6 1011108
4 august, wed
wed401:00+10ssw118759 14.6 101010
04:00+10s2288100 0.0 101017
07:00+12se1183100 0.0 101058
10:00+15nnw3276100 0.2 1009501
13:00+19nne325898 1.2 10061061
16:00+16sse3372100 1.9 1006449
19:00+13nw2385100 3.2 1007175
22:00+11ssw2186100 0.7 100913